| time (UTC) | temp F | wind direction | speed knots | gust knots | rain 1hr in | rain 24hr in | rain mn in | humidity % | barometer mb |
| 20260510083015 | 67 | 342 | 0.0 | 0.0 | 0.00 | 0.06 | 0.02 | 1 | 1013.5 |
| 20260510081521 | 67 | 342 | 0.0 | 0.0 | 0.00 | 0.06 | 0.02 | 1 | 1013.6 |
| 20260510080013 | 67 | 342 | 0.0 | 0.0 | 0.01 | 0.06 | 0.02 | 1 | 1013.7 |
| 20260510074502 | 67 | 342 | 0.0 | 0.0 | 0.01 | 0.06 | 0.02 | 1 | 1013.5 |
| 20260510073057 | 67 | 342 | 0.0 | 0.0 | 0.02 | 0.06 | 0.02 | 1 | 1013.5 |
| 20260510071558 | 67 | 342 | 0.0 | 0.0 | 0.02 | 0.06 | 0.02 | 1 | 1013.6 |
| 20260510070049 | 67 | 342 | 0.0 | 0.0 | 0.01 | 0.05 | 0.01 | 1 | 1013.0 |
| 20260510064545 | 67 | 342 | 0.0 | 0.0 | 0.01 | 0.05 | 0.01 | 1 | 1013.4 |
| 20260510063042 | 68 | 342 | 0.0 | 0.0 | 0.00 | 0.04 | 0.00 | 1 | 1013.6 |
| 20260510061544 | 68 | 342 | 0.0 | 0.0 | 0.00 | 0.04 | 0.00 | 1 | 1013.5 |
| 20260510060031 | 68 | 342 | 0.0 | 0.0 | 0.00 | 0.04 | 0.00 | 1 | 1013.9 |
| 20260510054527 | 68 | 342 | 0.0 | 0.0 | 0.00 | 0.04 | 0.00 | 1 | 1013.6 |
| 20260510053021 | 68 | 342 | 0.0 | 0.0 | 0.00 | 0.04 | 0.00 | 1 | 1014.0 |
| 20260510051518 | 68 | 342 | 0.0 | 0.0 | 0.00 | 0.04 | 0.00 | 1 | 1014.2 |
| 20260510050014 | 68 | 342 | 0.0 | 0.0 | 0.00 | 0.04 | 0.00 | 1 | 1014.1 |
| 20260510044509 | 68 | 342 | 0.0 | 0.0 | 0.00 | 0.05 | 0.00 | 1 | 1014.1 |
| 20260510043008 | 68 | 342 | 0.0 | 0.0 | 0.00 | 0.05 | 0.00 | 1 | 1013.9 |
| 20260510041501 | 68 | 342 | 0.0 | 0.0 | 0.00 | 0.05 | 0.00 | 1 | 1013.9 |
| 20260510040101 | 68 | 342 | 0.0 | 0.0 | 0.00 | 0.05 | 0.00 | 1 | 1013.7 |
| 20260510034600 | 68 | 342 | 0.0 | 0.0 | 0.00 | 0.10 | 0.05 | 1 | 1013.6 |
| 20260510033110 | 68 | 342 | 0.0 | 0.0 | 0.00 | 0.10 | 0.05 | 1 | 1013.5 |
| 20260510031551 | 68 | 342 | 0.0 | 0.0 | 0.00 | 0.10 | 0.05 | 1 | 1013.4 |
| 20260510030050 | 68 | 342 | 0.0 | 0.0 | 0.00 | 0.10 | 0.05 | 1 | 1013.4 |
| 20260510024552 | 68 | 342 | 0.0 | 0.0 | 0.00 | 0.11 | 0.05 | 1 | 1013.4 |
| 20260510023045 | 68 | 342 | 0.0 | 0.0 | 0.00 | 0.11 | 0.05 | 1 | 1013.2 |
| 20260510021544 | 68 | 342 | 0.0 | 0.0 | 0.00 | 0.11 | 0.05 | 1 | 1013.2 |
| 20260510020047 | 69 | 342 | 0.0 | 0.0 | 0.00 | 0.11 | 0.05 | 1 | 1013.1 |
| 20260510014544 | 69 | 342 | 0.0 | 0.0 | 0.00 | 0.11 | 0.05 | 1 | 1013.0 |
| 20260510013043 | 69 | 342 | 0.0 | 0.0 | 0.00 | 0.11 | 0.05 | 1 | 1012.7 |
| 20260510011552 | 69 | 342 | 0.0 | 0.0 | 0.00 | 0.11 | 0.05 | 1 | 1012.8 |
| 20260510010039 | 69 | 342 | 0.0 | 0.0 | 0.00 | 0.11 | 0.05 | 1 | 1012.7 |
| 20260510004537 | 69 | 342 | 0.0 | 0.0 | 0.00 | 0.11 | 0.05 | 1 | 1012.6 |
| 20260510003055 | 69 | 342 | 0.0 | 0.0 | 0.00 | 0.11 | 0.05 | 1 | 1012.4 |
| 20260510001529 | 69 | 342 | 0.0 | 0.0 | 0.00 | 0.11 | 0.05 | 1 | 1012.2 |
| 20260510000022 | 70 | 342 | 0.0 | 0.0 | 0.00 | 0.11 | 0.05 | 1 | 1012.3 |
| 20260509234527 | 70 | 338 | 0.0 | 0.0 | 0.00 | 0.11 | 0.05 | 1 | 1011.9 |
| 20260509233020 | 70 | 338 | 0.0 | 0.0 | 0.00 | 0.11 | 0.05 | 1 | 1012.0 |
| 20260509231508 | 70 | 338 | 0.0 | 0.0 | 0.00 | 0.11 | 0.05 | 1 | 1011.8 |
| 20260509230011 | 70 | 338 | 0.0 | 0.0 | 0.00 | 0.11 | 0.05 | 1 | 1011.6 |
| 20260509224600 | 70 | 338 | 0.0 | 0.0 | 0.00 | 0.11 | 0.05 | 1 | 1011.3 |
| 20260509223055 | 71 | 260 | 0.0 | 0.0 | 0.01 | 0.11 | 0.05 | 1 | 1011.5 |
| 20260509221551 | 71 | 213 | 0.0 | 0.0 | 0.01 | 0.11 | 0.05 | 1 | 1011.7 |
| 20260509220046 | 71 | 306 | 0.0 | 0.0 | 0.01 | 0.11 | 0.05 | 1 | 1011.8 |
| 20260509214542 | 71 | 306 | 0.0 | 0.0 | 0.01 | 0.11 | 0.05 | 1 | 1011.8 |
| 20260509213041 | 71 | 67 | 0.0 | 0.0 | 0.00 | 0.10 | 0.04 | 1 | 1011.9 |
| 20260509211538 | 71 | 67 | 0.0 | 0.0 | 0.01 | 0.10 | 0.04 | 1 | 1012.3 |
| 20260509210029 | 71 | 67 | 0.0 | 0.0 | 0.01 | 0.10 | 0.04 | 1 | 1012.1 |
| 20260509204525 | 72 | 67 | 0.0 | 0.0 | 0.01 | 0.10 | 0.04 | 1 | 1011.9 |
| 20260509203022 | 72 | 68 | 0.0 | 0.0 | 0.01 | 0.10 | 0.04 | 1 | 1012.2 |
| 20260509201517 | 72 | 68 | 0.0 | 0.0 | 0.00 | 0.09 | 0.03 | 1 | 1012.1 |
| 20260509200013 | 72 | 68 | 0.0 | 0.0 | 0.00 | 0.09 | 0.03 | 1 | 1012.2 |
| 20260509194511 | 73 | 68 | 0.0 | 0.0 | 0.01 | 0.09 | 0.03 | 1 | 1012.3 |
| 20260509193002 | 73 | 68 | 0.0 | 0.0 | 0.02 | 0.09 | 0.03 | 1 | 1012.3 |
| 20260509191558 | 74 | 217 | 0.0 | 0.0 | 0.02 | 0.09 | 0.03 | 1 | 1012.2 |
| 20260509190053 | 74 | 217 | 0.0 | 0.0 | 0.02 | 0.09 | 0.03 | 1 | 1012.1 |
| 20260509184550 | 75 | 217 | 0.0 | 0.0 | 0.01 | 0.08 | 0.02 | 1 | 1012.1 |
| 20260509183111 | 75 | 217 | 0.0 | 0.0 | 0.00 | 0.07 | 0.01 | 1 | 1012.0 |
| 20260509181554 | 76 | 281 | 0.0 | 0.0 | 0.00 | 0.07 | 0.01 | 1 | 1012.0 |
| 20260509180036 | 77 | 284 | 0.0 | 0.0 | 0.00 | 0.07 | 0.01 | 1 | 1012.2 |
| 20260509174535 | 77 | 250 | 0.0 | 0.0 | 0.00 | 0.07 | 0.01 | 1 | 1012.3 |
| 20260509173027 | 77 | 302 | 0.0 | 0.0 | 0.00 | 0.07 | 0.01 | 1 | 1012.4 |
| 20260509171525 | 76 | 260 | 0.0 | 0.0 | 0.00 | 0.07 | 0.01 | 1 | 1012.5 |
| 20260509170018 | 76 | 271 | 0.0 | 0.0 | 0.00 | 0.07 | 0.01 | 1 | 1012.6 |
| 20260509164513 | 75 | 240 | 0.0 | 1.7 | 0.00 | 0.07 | 0.01 | 1 | 1012.7 |
| 20260509163008 | 75 | 279 | 0.0 | 2.6 | 0.00 | 0.07 | 0.01 | 1 | 1012.9 |
| 20260509161504 | 73 | 265 | 0.0 | 4.3 | 0.00 | 0.07 | 0.01 | 1 | 1012.8 |
| 20260509160101 | 72 | 275 | 0.9 | 4.3 | 0.00 | 0.07 | 0.01 | 1 | 1012.8 |
| 20260509154558 | 71 | 290 | 0.0 | 0.0 | 0.00 | 0.07 | 0.01 | 1 | 1012.9 |
| 20260509153051 | 71 | 291 | 0.0 | 0.0 | 0.00 | 0.07 | 0.01 | 1 | 1013.3 |
| 20260509151547 | 71 | 303 | 0.0 | 0.0 | 0.00 | 0.07 | 0.01 | 1 | 1013.3 |
| 20260509150042 | 71 | 66 | 0.0 | 0.0 | 0.00 | 0.07 | 0.01 | 1 | 1013.4 |
| 20260509144540 | 71 | 66 | 0.0 | 0.0 | 0.00 | 0.07 | 0.01 | 1 | 1013.5 |
| 20260509143034 | 71 | 66 | 0.0 | 0.0 | 0.00 | 0.07 | 0.01 | 1 | 1013.6 |
| 20260509141529 | 70 | 66 | 0.0 | 0.0 | 0.00 | 0.07 | 0.01 | 1 | 1013.6 |
| 20260509140024 | 70 | 66 | 0.0 | 0.0 | 0.00 | 0.07 | 0.01 | 1 | 1013.3 |
| 20260509134520 | 69 | 66 | 0.0 | 0.0 | 0.00 | 0.07 | 0.01 | 1 | 1013.2 |
| 20260509133015 | 68 | 66 | 0.0 | 0.0 | 0.00 | 0.07 | 0.01 | 1 | 1013.1 |
| 20260509131511 | 67 | 66 | 0.0 | 0.0 | 0.00 | 0.07 | 0.01 | 1 | 1013.1 |
| 20260509130008 | 66 | 66 | 0.0 | 0.0 | 0.00 | 0.07 | 0.01 | 1 | 1013.3 |
| 20260509124502 | 65 | 66 | 0.0 | 0.0 | 0.00 | 0.07 | 0.01 | 1 | 1013.6 |
| 20260509123059 | 65 | 66 | 0.0 | 0.0 | 0.00 | 0.07 | 0.01 | 1 | 1013.4 |
| 20260509121553 | 64 | 66 | 0.0 | 0.0 | 0.00 | 0.07 | 0.01 | 1 | 1013.1 |
| 20260509120054 | 63 | 66 | 0.0 | 0.0 | 0.00 | 0.07 | 0.01 | 1 | 1012.9 |
| 20260509114545 | 62 | 66 | 0.0 | 0.0 | 0.00 | 0.07 | 0.01 | 1 | 1012.9 |
| 20260509113040 | 62 | 66 | 0.0 | 0.0 | 0.00 | 0.07 | 0.01 | 1 | 1012.8 |
| 20260509111536 | 62 | 66 | 0.0 | 0.0 | 0.00 | 0.07 | 0.01 | 1 | 1012.6 |
| 20260509110035 | 62 | 66 | 0.0 | 0.0 | 0.00 | 0.07 | 0.01 | 1 | 1012.5 |
| 20260509104536 | 62 | 66 | 0.0 | 0.0 | 0.00 | 0.07 | 0.01 | 1 | 1012.3 |
| 20260509103023 | 63 | 66 | 0.0 | 0.0 | 0.00 | 0.07 | 0.01 | 1 | 1012.3 |
| 20260509101519 | 63 | 66 | 0.0 | 0.0 | 0.00 | 0.07 | 0.01 | 1 | 1011.9 |
| 20260509100015 | 63 | 66 | 0.0 | 0.0 | 0.00 | 0.07 | 0.01 | 1 | 1011.7 |
| 20260509094511 | 63 | 66 | 0.0 | 0.0 | 0.00 | 0.07 | 0.01 | 1 | 1011.8 |
| 20260509093008 | 63 | 66 | 0.0 | 0.0 | 0.00 | 0.07 | 0.01 | 1 | 1011.6 |
| 20260509091504 | 63 | 66 | 0.0 | 0.0 | 0.00 | 0.07 | 0.01 | 1 | 1012.2 |
| 20260509084557 | 64 | 66 | 0.0 | 0.0 | 0.00 | 0.07 | 0.01 | 1 | 1012.0 |